Volver al catálogo

COSMOS 1856

ActivoMilitarLEO
NORAD 18117·PAYLOAD·🇷🇺 Russia

Lanzado Jun 16, 1987 desde Plesetsk Cosmodrome

Loading…

Próximos Pases (próximas 24 horas)

TLE

ActualizadoSource: Space-Track

Época: Sep 14, 2026, 19:41 UTC

1 18117U 87051E   26257.82041140 -.00000025  00000-0 -54798-4 0  9997
2 18117  74.0005  93.8226 0029065 105.5710 266.5660 12.52533988794587

Sigue COSMOS 1856 en tiempo real con AllMySat

Download on the App Store